Regional Weather Roundup
Issued by NWS

Home | Current Version | Previous Version | Graphics & Text | Print | Product List | Glossary On
Versions: 1 2 3 4 5 6 7 8 9 10 11 12 13 14 15 16 17 18 19 20 21 22 23 24 25 26 27 28 29 30 31 32 33 34 35 36 37 38 39 40 41 42 43 44 45 46 47 48 49 50
000
ASUS43 KBIS 311210
RWRND

NORTH DAKOTA REGIONAL WEATHER ROUNDUP
NATIONAL WEATHER SERVICE BISMARCK ND
700 AM CDT TUE MAY 31 2016

NOTE: "FAIR" INDICATES FEW OR NO CLOUDS BELOW 12,000 FEET WITH NO
SIGNIFICANT WEATHER AND/OR OBSTRUCTIONS TO VISIBILITY.


NDZ001>003-009>011-017-311300-
NORTHWEST NORTH DAKOTA

CITY           SKY/WX    TMP DP  RH WIND       PRES   REMARKS
WILLISTON      LGT RAIN  52  49  89 W7        29.74F
6HR MIN TEMP:  50; 6HR MAX TEMP:  53; 6HR PCP:  0.19;

MINOT          LGT RAIN  57  54  89 W7        29.66F
MINOT AFB      RAIN      54  54  99 W8        29.65F FOG
$$

NDZ018>021-031>035-040>046-311300-
SOUTHWEST NORTH DAKOTA

CITY           SKY/WX    TMP DP  RH WIND       PRES   REMARKS
BISMARCK       CLEAR     49  44  83 W17       29.78F
6HR MIN TEMP:  49; 6HR MAX TEMP:  56; 6HR PCP:  0.01;

DICKINSON      LGT RAIN  45  43  93 W17       29.78F
GARRISON         N/A     50  47  89 W18       29.71F
6HR MIN TEMP:  50; 6HR MAX TEMP:  55; 6HR PCP:  0.10;

HETTINGER ARPT MOCLDY    46  42  86 W15G25    29.87S
$$

NDZ004>008-012>016-024-026-027-054-311300-
NORTHEAST NORTH DAKOTA

CITY           SKY/WX    TMP DP  RH WIND       PRES   REMARKS
GRAND FORKS    CLOUDY    60  58  92 SE13      29.69S
GRND FRKS AFB  CLOUDY    59  59 100 S13       29.68S
DEVILS LAKE    CLOUDY    58  56  93 SW12      29.64F
$$

NDZ022-023-025-028>030-036>039-047>053-311300-
SOUTHEAST NORTH DAKOTA

CITY           SKY/WX    TMP DP  RH WIND       PRES   REMARKS
FARGO          CLOUDY    62  58  86 S13       29.72F
6HR MIN TEMP:  61; 6HR MAX TEMP:  62; 6HR PCP:  0.01;

JAMESTOWN      CLOUDY    57  54  89 SW12      29.71S
$$





USA.gov is the U.S. government's official web portal to all federal, state and local government web resources and services.